GEFSSGP_500_meanwind_150.txt.gz
Wind_Speed
6 5 5 4 4 4 4 4 3 3 2 1 1 3 3 4 4 5 5 4 4 4 3 3 3 3 2 2 2 2 2 3 4 4 4 5 5 5 4 5 4 4 5 5 5 5 6 6 6
7 7 6 6 5 5 5 5 5 4 4 3 2 3 3 4 4 6 5 5 4 4 3 3 3 3 3 2 2 2 2 4 4 4 5 6 6 6 6 5 5 5 5 6 6 6 6 7 7
8 8 8 7 7 6 6 6 6 5 5 4 4 4 4 4 4 5 6 6 6 5 4 3 3 3 3 2 2 2 3 4 5 5 6 6 6 6 6 6 6 5 6 6 6 7 7 7 7
9 9 9 9 8 8 8 7 6 6 6 5 5 5 5 5 5 5 6 7 6 5 4 4 3 3 3 2 2 3 4 5 5 6 6 6 7 7 6 7 7 6 7 7 7 8 8 8 8
10 10 10 10 10 9 9 8 8 7 7 6 6 6 5 5 5 6 6 7 7 5 4 4 3 3 3 3 3 4 5 5 5 6 6 6 7 7 7 7 6 6 7 7 7 7 7 8 8
11 11 11 11 11 10 10 9 9 8 8 7 7 6 6 6 6 6 7 7 6 5 4 3 3 3 3 3 3 4 5 5 6 6 6 6 7 7 7 6 6 6 6 6 7 7 7 7 7
12 11 12 12 12 11 11 10 10 9 9 8 7 8 7 7 7 7 7 6 6 5 5 4 3 3 3 3 3 4 4 5 6 6 6 6 6 6 6 6 6 6 6 6 7 7 7 7 7
13 12 13 13 13 13 12 11 11 10 10 9 9 9 9 8 7 7 7 7 7 6 6 5 4 3 3 3 3 3 4 5 5 6 6 6 6 5 5 5 5 5 6 6 7 7 7 7 7
14 13 14 14 13 13 13 12 11 11 10 10 10 10 10 9 9 8 8 7 7 6 5 5 4 3 2 2 2 3 4 4 5 5 5 5 5 5 5 5 5 6 6 6 7 7 7 7 7
14 14 14 14 14 14 13 13 12 11 11 10 10 11 10 9 9 8 8 8 7 6 6 5 4 2 1 1 2 3 4 4 4 4 5 4 4 5 5 5 5 6 6 6 6 6 6 6 6
15 15 15 15 15 15 14 13 13 13 13 12 11 11 11 10 9 9 8 7 7 6 6 5 4 2 1 1 2 2 3 3 4 4 4 4 4 4 5 5 5 6 6 6 6 6 6 5 6
15 15 14 15 15 15 15 15 13 14 13 12 11 11 11 10 9 9 9 8 8 6 6 5 3 2 1 1 1 2 2 3 4 3 4 4 4 4 5 5 6 6 6 6 6 5 4 4 5
15 15 15 15 15 16 16 16 15 14 14 13 12 11 11 10 10 10 9 9 8 6 6 5 4 3 2 0 1 1 2 3 3 3 3 3 4 5 5 6 6 6 6 6 5 4 3 4 4
15 16 16 16 16 16 17 17 16 16 16 14 13 12 12 11 12 10 9 9 8 7 6 5 4 3 2 1 0 1 2 3 3 3 3 4 5 5 5 6 6 5 5 4 3 2 2 2 2
15 16 16 16 16 16 16 17 17 17 17 16 15 14 13 13 13 12 11 9 8 8 7 5 5 4 2 1 0 1 2 2 3 4 4 4 5 5 5 6 6 5 5 4 3 2 1 1 1
15 16 16 16 16 16 17 17 18 17 18 17 16 15 15 14 14 13 11 9 9 8 7 6 5 4 2 1 1 1 2 2 4 5 5 4 5 5 6 6 6 6 5 4 3 3 2 1 2
15 16 16 16 17 16 17 17 17 18 19 18 17 16 16 15 15 13 12 10 9 9 8 7 6 5 3 2 1 1 2 3 4 5 5 5 6 6 6 7 7 6 6 5 4 4 4 3 3
15 16 17 17 17 16 17 18 17 17 18 18 17 17 16 15 15 14 12 11 10 10 9 7 6 5 4 3 2 1 2 2 3 5 5 6 6 6 7 7 7 7 6 6 5 5 5 4 4
14 15 16 17 17 17 16 17 18 19 18 18 18 18 17 16 15 15 14 12 11 10 10 8 7 5 5 4 3 2 2 2 3 4 5 6 6 7 7 7 7 7 7 6 6 6 6 5 5
13 14 16 16 16 17 16 17 18 19 20 19 18 18 17 16 15 15 14 13 12 11 10 10 8 7 6 5 4 3 2 3 3 4 5 6 6 7 7 8 8 7 7 7 7 7 6 6 6
13 14 15 15 16 16 16 17 17 18 20 20 19 18 18 17 15 15 14 13 13 12 11 10 9 8 7 6 5 4 3 3 3 4 4 5 6 7 8 8 8 8 7 7 7 7 7 7 6
12 13 14 14 15 16 16 17 17 18 20 21 20 18 18 18 16 15 15 14 14 13 12 10 10 9 8 7 6 5 4 3 3 3 4 5 6 7 8 8 8 8 7 7 7 7 7 7 6
9 10 12 13 14 15 16 17 16 19 20 20 20 19 20 19 18 17 16 16 15 14 13 12 11 10 9 8 7 6 5 4 3 3 3 4 5 6 7 8 8 8 8 7 7 7 7 7 6
9 9 9 11 13 14 15 16 16 17 19 20 20 20 20 20 20 18 17 17 16 15 15 13 12 12 10 10 8 7 6 5 4 3 3 4 4 5 6 7 8 8 8 8 8 8 7 6 6
9 9 9 10 10 11 13 15 15 15 18 20 21 21 21 21 21 20 19 18 17 16 15 14 14 13 11 11 9 9 7 6 4 4 3 3 3 4 6 6 7 8 8 9 8 8 8 7 7
8 9 10 11 10 10 11 13 13 16 17 19 20 21 20 20 21 20 20 19 18 17 16 15 15 14 13 12 11 10 9 7 5 4 3 3 3 4 5 5 6 7 7 8 8 9 8 8 7
7 8 9 10 11 10 11 11 12 15 17 19 21 20 19 19 20 21 21 20 19 18 17 16 16 15 14 14 13 11 10 8 6 5 3 3 2 3 3 4 5 5 7 8 8 8 8 8 7
8 8 8 9 10 10 10 11 12 14 16 18 19 20 19 19 19 20 21 21 20 19 18 17 17 16 15 15 14 12 11 9 7 6 4 4 3 2 2 2 3 4 5 6 6 7 7 7 7
9 8 8 9 9 9 9 11 12 13 15 17 18 19 20 20 20 19 19 20 21 20 18 17 17 16 15 15 14 13 12 10 9 7 6 5 4 3 2 1 1 2 3 4 4 5 5 6 6
9 9 8 8 9 9 10 11 11 12 14 16 18 19 20 20 19 19 19 19 20 20 19 18 17 17 16 16 15 14 13 11 10 9 8 7 5 4 3 2 1 0 1 2 3 3 4 4 4

GEFSSGP_500_meanwind_156.txt.gz
Wind_Speed
4 4 4 3 4 4 5 5 5 5 5 4 4 5 5 6 6 6 6 6 6 5 6 6 5 5 4 4 4 4 4 3 3 3 4 4 5 4 4 4 5 5 5 5 6 6 6 6 7
5 5 5 5 6 6 6 6 6 6 6 6 6 6 6 7 7 7 7 7 6 6 6 6 6 6 5 5 5 5 4 4 4 4 5 5 5 5 5 6 6 6 6 6 6 6 7 7 8
7 7 7 7 8 8 7 7 7 7 7 7 7 7 7 7 8 8 7 7 6 6 6 6 5 5 5 5 5 5 5 5 4 5 6 6 6 6 6 6 6 7 7 7 7 7 7 7 8
8 8 8 8 9 9 9 8 8 8 9 8 8 8 8 8 7 8 8 7 7 7 6 6 6 5 5 4 4 5 5 5 5 5 6 6 6 6 6 6 7 7 7 7 7 7 7 8 8
9 9 10 10 10 9 10 10 10 9 9 10 9 8 8 8 8 8 7 8 8 8 7 7 7 6 5 5 5 5 5 5 5 6 6 7 7 7 7 7 7 7 7 7 7 7 7 7 8
11 11 11 11 11 11 10 11 11 10 10 10 10 9 9 9 9 8 8 8 8 8 8 7 6 5 5 5 5 4 4 5 6 6 7 7 6 7 7 6 6 6 6 7 7 7 7 7 8
12 12 12 12 12 12 11 12 12 12 12 12 11 10 10 9 9 10 9 9 8 8 8 7 6 5 5 5 5 4 4 5 5 6 6 6 6 6 6 6 5 6 6 6 7 7 8 8 8
12 13 13 14 13 13 13 13 13 12 13 12 12 11 11 10 10 10 10 9 8 8 7 8 6 5 5 4 5 5 5 4 5 5 5 6 5 5 5 5 5 6 6 7 7 7 8 8 8
13 13 14 14 14 14 14 14 13 13 13 13 12 11 12 11 10 10 10 9 9 8 8 8 7 6 5 5 5 5 5 5 5 5 5 5 5 5 6 6 6 6 7 7 7 8 8 8 9
13 14 14 15 15 15 15 15 14 14 14 13 12 12 12 11 11 11 10 10 9 9 8 8 7 6 5 5 4 4 4 4 5 5 5 5 5 6 6 6 6 7 7 7 7 7 8 8 8
14 14 15 16 16 16 15 16 15 15 14 14 13 12 12 11 11 11 11 10 9 9 8 8 7 6 5 4 3 3 4 3 4 4 4 5 5 6 6 6 6 7 7 7 7 7 7 7 7
15 15 16 16 16 16 16 16 16 15 15 15 14 14 13 12 12 12 11 10 9 9 8 7 6 5 3 3 2 3 3 3 3 4 4 5 5 5 6 6 6 6 6 6 6 6 7 6 6
15 15 16 16 16 17 17 17 17 16 16 15 15 15 15 14 13 12 11 10 9 8 7 6 6 4 2 2 2 3 3 2 3 4 4 5 5 6 6 6 7 7 6 6 6 6 5 5 5
15 15 15 16 16 17 17 17 17 17 17 16 16 16 15 13 12 11 11 10 9 8 7 5 4 4 3 2 3 3 2 2 2 4 4 5 5 6 6 6 7 7 6 6 5 4 4 3 3
15 15 15 15 16 17 17 18 18 17 17 17 17 16 16 14 12 12 11 11 10 9 7 6 5 4 3 2 2 2 1 2 3 4 5 5 5 5 6 6 7 7 7 6 5 4 4 3 2
15 15 16 16 16 17 17 18 18 18 17 17 17 16 16 14 13 13 11 10 11 10 8 6 5 4 3 2 1 1 1 2 3 4 5 5 5 5 6 7 7 7 7 7 5 5 4 4 3
14 15 16 17 16 17 18 18 19 18 17 17 17 17 16 15 14 14 12 11 11 10 9 7 6 4 3 2 1 1 1 2 3 4 5 5 6 6 6 7 7 7 7 7 6 5 5 4 4
14 15 15 17 17 16 17 18 19 18 18 18 17 17 15 15 15 14 13 12 11 10 9 8 7 5 3 2 1 0 1 2 3 4 5 5 6 6 7 7 7 7 7 7 6 6 5 4 4
14 15 16 17 17 16 17 18 18 18 18 18 18 17 16 16 16 15 14 12 12 11 10 9 7 6 4 3 2 1 1 1 2 4 5 5 6 6 7 8 7 7 7 7 6 6 5 4 4
14 15 16 16 16 16 16 17 18 18 17 17 17 17 16 16 16 16 15 14 13 13 11 9 8 6 5 4 3 2 1 1 2 3 4 5 6 7 7 7 7 7 7 7 6 6 6 5 4
14 15 15 15 15 16 16 16 17 17 17 17 18 17 17 16 16 16 15 15 14 14 12 10 9 8 6 5 4 3 2 1 1 2 3 5 6 7 7 7 7 7 7 7 7 6 6 5 5
13 13 14 14 15 16 15 15 15 16 17 17 17 17 17 17 16 16 15 15 14 14 12 10 9 8 7 6 5 4 3 1 0 1 2 4 5 6 7 7 7 7 7 7 7 6 6 5 5
12 11 12 13 14 14 14 14 14 16 17 16 16 17 17 17 17 17 16 15 15 14 13 10 10 9 8 7 6 5 4 2 1 1 2 3 4 5 6 7 7 7 7 7 7 6 6 6 5
11 11 11 12 13 13 13 14 14 16 16 15 16 16 17 17 17 17 17 15 15 15 13 12 10 10 8 7 7 6 5 4 2 1 1 2 3 5 5 6 7 7 6 6 6 6 7 6 6
11 11 10 11 12 11 12 14 14 15 15 15 15 16 16 17 17 17 17 16 16 15 15 13 11 10 9 8 8 7 6 5 3 2 1 1 2 4 4 5 6 6 6 6 6 6 7 6 6
11 11 10 10 10 10 11 13 13 14 14 14 15 16 17 17 17 17 17 16 16 16 15 14 12 11 10 9 9 9 8 6 4 3 2 0 1 2 3 4 5 6 6 6 6 6 6 6 6
11 11 10 11 11 11 11 12 12 12 12 13 14 16 17 17 17 17 17 17 17 16 15 14 14 12 11 10 10 10 9 7 5 4 2 1 0 1 2 3 4 5 5 6 6 6 6 6 6
11 10 10 11 11 11 10 11 12 11 12 12 13 14 15 16 16 18 18 17 17 17 16 14 14 13 12 11 10 11 10 8 7 5 4 3 1 0 1 2 3 3 4 4 5 5 5 6 6
12 12 11 11 11 10 10 10 11 11 11 11 12 13 14 15 16 17 18 18 17 17 16 15 14 13 12 11 10 11 11 10 8 7 5 4 3 2 1 0 1 1 2 3 3 4 4 5 5
13 12 12 13 12 11 10 9 10 11 11 11 12 13 14 14 15 17 18 18 18 17 16 16 15 14 13 12 11 12 12 11 10 8 7 6 5 4 3 2 1 1 1 2 2 3 3 4 4

GEFSSGP_500_meanwind_162.txt.gz
Wind_Speed
2 2 2 2 3 3 3 3 3 2 2 3 4 4 4 3 3 3 3 4 4 3 4 4 5 5 4 4 4 5 5 6 5 5 5 5 5 6 6 6 6 7 7 7 7 8 9 9 9
3 3 4 4 4 4 5 5 4 4 4 4 4 4 3 3 4 4 4 4 4 4 4 4 5 6 5 5 5 6 6 6 5 5 5 6 6 6 7 7 8 8 8 8 8 9 10 10 10
4 5 5 5 6 6 6 7 6 5 5 5 4 4 4 4 4 5 5 5 5 4 4 4 5 6 6 6 6 6 6 6 6 6 6 6 7 7 7 8 8 9 9 8 8 8 9 10 10
6 6 7 7 7 7 7 7 6 5 5 5 5 5 5 5 5 6 5 5 4 4 4 4 4 5 5 6 6 6 6 7 7 6 6 6 7 7 8 8 9 9 8 9 9 9 9 9 9
7 8 8 8 8 7 7 6 5 5 6 6 6 6 6 6 6 6 5 5 4 4 4 4 5 5 5 6 6 6 6 7 7 7 7 7 8 8 8 8 8 8 8 8 8 9 9 9 9
9 9 9 9 9 8 8 6 6 6 6 6 7 7 7 7 6 7 7 6 5 5 5 5 5 5 5 6 6 7 6 6 7 7 7 6 7 7 7 7 8 8 8 8 8 9 9 9 10
10 10 10 10 9 8 8 7 7 7 7 7 8 8 8 8 7 7 8 7 6 6 6 5 6 6 6 6 7 6 6 6 6 6 6 5 5 6 6 7 7 7 8 8 8 8 8 8 9
11 11 11 11 10 9 9 8 8 8 9 9 9 9 9 9 9 8 8 8 7 6 6 6 6 5 5 6 6 6 6 5 5 5 5 5 5 5 6 6 7 7 7 7 8 8 8 8 9
11 11 11 11 11 10 10 9 9 9 10 10 10 10 9 9 9 8 7 7 8 8 7 7 6 6 6 6 6 6 6 5 5 5 5 5 5 5 5 6 7 7 6 6 7 7 8 8 8
12 12 12 11 12 11 11 10 10 10 10 10 10 10 9 9 8 8 7 7 7 8 7 7 6 5 5 5 5 5 5 5 4 5 5 5 4 4 5 5 5 5 5 5 5 6 7 7 8
13 13 13 13 12 12 11 11 12 12 11 11 10 10 9 9 8 8 8 7 7 7 7 7 6 6 5 5 4 4 4 4 4 4 4 4 4 4 5 5 4 5 5 5 5 6 6 6 6
13 13 14 12 13 12 12 12 13 13 12 12 12 11 9 8 9 8 8 7 7 7 7 7 7 6 5 4 4 3 2 2 3 3 3 3 4 4 4 4 4 4 4 4 4 4 4 5 5
13 13 14 13 12 13 12 12 13 12 13 13 12 12 10 9 9 9 8 8 7 7 7 7 6 6 5 4 3 2 1 1 2 2 2 3 3 3 4 3 4 4 4 3 3 3 3 4 4
13 13 13 13 13 13 13 13 13 12 13 13 13 12 11 10 9 9 9 8 8 7 7 6 6 6 5 3 3 2 1 1 1 1 2 2 3 3 3 4 3 3 3 3 3 3 3 2 2
14 14 13 13 14 14 14 14 14 13 13 13 13 12 12 10 9 9 9 8 8 8 8 6 6 6 5 4 3 2 1 1 1 1 1 2 3 3 3 4 3 3 3 3 2 2 2 2 1
14 14 14 14 14 14 14 14 14 13 13 13 13 12 11 11 10 9 9 8 8 8 7 7 6 6 5 4 3 2 1 1 0 0 1 2 3 3 3 3 4 4 3 3 2 2 3 2 1
14 14 14 14 14 14 14 13 14 14 13 13 13 12 11 11 11 10 10 9 9 8 8 8 7 7 6 4 2 2 1 1 2 1 2 2 3 4 3 3 4 4 4 4 3 3 3 3 2
14 15 15 14 14 13 13 13 13 14 13 13 12 12 12 12 11 11 11 10 10 10 9 8 8 7 6 5 4 3 2 2 2 2 2 3 4 4 4 4 4 5 5 4 4 4 4 4 3
14 14 14 13 13 13 13 13 13 13 13 13 12 12 12 11 11 11 11 11 10 10 10 10 9 7 6 6 5 4 2 2 2 2 2 3 3 4 4 4 5 5 5 5 4 4 4 4 4
14 14 14 13 12 12 12 13 13 13 12 12 12 11 12 12 11 11 11 10 10 11 12 11 10 8 7 6 5 4 3 3 2 2 3 3 3 4 4 4 4 5 5 5 5 4 5 5 5
13 13 13 13 12 12 12 12 12 12 12 12 12 12 13 13 13 12 12 11 11 11 13 12 11 9 8 7 6 5 4 4 3 3 2 3 3 4 4 4 4 5 5 6 5 5 5 6 5
12 13 13 13 12 12 12 11 11 11 11 11 12 12 12 12 12 12 12 12 11 11 12 13 12 10 9 9 8 6 6 4 3 3 2 2 3 3 4 4 4 4 5 5 5 5 6 6 5
12 12 13 13 13 12 12 12 10 10 9 10 11 12 13 12 12 12 13 13 13 13 13 13 12 11 10 10 9 8 7 5 4 3 2 2 3 3 4 4 4 5 5 6 6 6 6 6 6
12 13 13 12 12 12 11 11 9 9 9 10 11 12 12 13 13 13 13 14 14 14 15 14 13 12 12 11 10 9 8 6 5 4 3 2 2 3 3 4 4 5 5 6 6 6 6 6 5
12 12 12 12 12 11 11 11 8 9 9 10 10 11 12 14 14 14 14 14 14 15 15 15 14 13 12 12 11 9 8 7 6 5 4 3 2 2 3 3 4 4 5 5 5 6 6 5 5
11 11 11 11 11 11 11 10 9 8 8 9 9 10 12 13 13 14 15 15 15 15 15 15 14 13 13 12 12 10 9 8 7 6 4 3 2 2 2 3 3 4 4 5 5 5 5 5 4
11 11 12 12 11 11 10 10 9 9 8 8 8 9 11 13 12 13 15 16 17 16 16 16 14 14 13 13 12 11 10 9 8 7 5 4 3 2 2 3 3 4 4 4 4 4 4 4 3
12 12 12 12 11 11 10 10 9 8 8 7 8 9 11 12 12 13 15 17 17 17 17 16 16 15 14 13 13 12 11 10 9 8 7 6 4 3 2 3 3 3 3 3 3 3 3 3 3
13 13 13 12 12 11 10 9 8 7 7 7 8 9 10 11 12 13 15 16 17 18 18 16 16 16 14 14 14 13 12 11 10 9 8 7 6 5 3 3 2 2 2 2 2 3 3 3 2
13 13 13 12 12 12 12 10 9 7 6 7 8 9 10 11 13 14 15 17 17 17 17 17 16 16 15 14 14 13 13 12 12 11 10 9 8 7 5 4 3 2 1 1 0 1 1 2 2

GEFSSGP_500_meanwind_168.txt.gz
Wind_Speed
3 3 3 3 4 4 4 4 3 3 3 2 3 3 3 3 3 4 3 3 3 3 3 3 3 3 3 4 4 5 4 3 3 4 4 4 5 5 6 7 7 7 7 7 7 8 8 9 10
5 5 4 4 5 4 4 4 5 4 4 3 3 3 4 3 3 4 3 3 3 3 3 4 3 4 3 4 5 5 4 4 4 4 5 5 6 7 7 8 8 8 8 8 8 8 9 10 11
6 5 5 5 5 5 5 6 6 6 5 4 4 4 5 4 4 4 4 4 4 4 4 4 4 4 3 4 4 4 4 5 5 5 6 6 7 8 8 9 9 8 9 9 9 9 9 10 11
6 6 6 6 5 5 6 6 6 6 5 5 5 5 5 5 4 4 5 5 5 5 5 5 5 5 4 4 4 4 5 5 6 7 7 7 8 8 9 9 8 9 9 9 9 9 9 9 10
8 7 7 7 6 6 6 7 7 6 6 6 6 6 6 6 5 5 6 6 6 6 5 5 5 4 4 4 4 4 5 6 6 7 8 8 8 8 8 8 8 9 9 10 10 10 9 10 10
9 8 8 7 7 6 7 7 6 6 6 5 6 6 6 6 6 6 6 7 6 6 6 6 6 4 4 5 5 5 5 6 6 7 7 7 8 8 8 8 8 9 9 10 10 10 10 10 10
10 9 8 8 8 7 7 7 7 7 6 6 6 6 7 7 7 7 6 7 6 6 6 6 6 5 5 5 5 5 6 6 6 6 7 7 7 7 7 8 8 9 10 10 10 11 10 11 10
11 10 9 8 8 8 8 8 8 8 7 7 7 7 7 7 7 7 7 7 7 7 6 6 6 5 5 5 5 6 6 6 5 5 6 6 7 7 7 8 8 8 9 9 9 10 10 10 10
11 11 10 9 9 9 9 9 9 9 8 8 8 7 8 8 8 7 7 7 7 7 7 7 6 5 5 5 5 5 5 5 5 5 5 6 7 7 7 7 7 7 8 8 8 8 9 9 9
12 11 11 10 10 10 10 10 10 10 9 9 9 8 8 8 8 7 7 7 7 7 7 6 6 5 5 4 4 5 5 5 4 4 5 6 6 6 6 6 6 7 7 7 8 8 9 9 8
13 12 12 11 11 11 11 10 10 10 10 10 10 9 8 8 9 8 8 8 7 7 7 6 5 5 4 5 4 4 4 4 3 4 4 5 5 5 5 6 5 6 6 6 6 6 7 7 7
14 13 13 12 12 12 11 11 11 11 11 11 11 10 9 9 9 9 8 8 8 7 7 7 6 5 4 4 4 4 3 2 3 3 4 4 3 3 4 5 5 5 4 4 4 4 5 6 6
14 14 13 13 13 13 12 12 12 12 12 12 12 11 10 9 9 9 8 8 8 8 7 6 6 6 5 4 3 2 1 2 2 2 3 3 3 3 4 4 4 4 4 4 4 4 4 5 5
13 13 13 13 13 13 12 12 12 12 12 12 12 12 11 10 9 9 9 9 8 8 7 7 6 5 5 4 3 3 2 2 1 2 2 2 2 3 4 4 3 4 4 4 4 4 4 4 4
14 13 14 14 14 14 14 13 13 13 13 13 13 13 12 11 11 10 9 9 9 8 8 7 7 6 5 4 4 3 2 2 1 2 2 2 2 3 4 3 3 3 3 3 3 3 3 4 4
14 14 14 15 15 15 14 14 14 14 13 13 13 13 12 12 11 10 10 10 10 9 8 7 7 6 5 6 5 3 3 2 1 1 1 1 2 3 3 3 2 2 2 3 3 3 3 3 3
14 14 14 15 15 15 15 14 14 14 14 13 13 13 12 12 12 11 11 11 10 10 9 9 7 6 6 5 4 3 2 2 1 1 1 1 2 2 2 2 2 2 2 2 3 2 3 2 2
14 14 14 15 15 15 15 15 15 14 13 13 13 13 12 12 13 12 12 12 11 10 10 9 8 7 6 5 5 3 2 2 2 2 1 0 1 2 2 2 2 2 2 3 3 2 2 2 2
14 14 15 15 16 15 15 15 15 15 14 13 13 13 13 13 13 13 13 12 11 10 10 10 10 9 8 6 6 4 3 2 2 2 1 0 1 2 2 2 2 2 2 3 3 3 2 2 2
14 14 14 15 15 15 15 15 15 15 14 13 13 13 14 14 14 13 13 13 11 11 11 11 11 10 9 7 6 6 4 3 3 2 1 1 1 1 2 2 2 2 2 3 3 3 3 3 2
14 15 14 14 14 15 15 14 15 14 14 14 13 13 14 14 14 14 14 13 13 12 11 11 12 11 10 8 7 6 5 4 4 2 2 1 1 1 2 2 2 2 3 3 3 3 3 3 3
15 15 15 14 14 14 14 13 14 14 13 13 13 13 13 14 15 15 15 14 13 12 11 11 12 12 11 9 8 8 7 5 4 3 2 2 1 2 1 1 2 2 2 2 2 3 3 3 3
16 15 15 14 15 15 14 14 13 13 13 13 13 13 13 14 16 16 15 14 14 13 12 12 12 13 12 10 9 9 7 7 5 4 3 2 2 1 1 1 1 1 2 2 2 3 3 4 4
16 16 16 16 15 15 14 15 13 12 12 12 13 13 13 14 15 16 15 15 14 14 14 13 13 13 13 11 10 10 9 8 6 5 4 3 2 1 1 1 1 1 2 2 2 2 2 2 3
16 15 16 16 15 14 13 13 12 11 11 12 13 13 13 13 14 16 15 15 14 14 15 15 15 14 14 13 12 11 9 8 7 7 5 4 3 2 1 1 1 2 2 2 2 2 2 2 3
16 16 16 16 14 13 12 12 11 12 12 13 13 12 12 13 14 14 16 15 15 15 15 16 16 15 15 14 12 11 11 9 8 7 7 6 4 3 2 1 1 1 1 1 1 2 2 2 2
17 16 15 15 14 14 13 12 11 12 12 12 13 12 12 13 14 15 15 15 16 16 15 15 16 15 15 15 14 12 12 10 9 8 8 7 6 4 3 2 1 1 1 1 0 1 1 1 1
17 16 15 15 14 14 13 12 12 12 12 12 12 12 13 14 14 15 16 16 17 17 16 16 16 15 16 16 14 13 12 11 10 9 9 8 7 6 4 3 2 2 1 0 0 0 1 1 1
16 16 16 16 15 14 12 11 12 11 12 12 12 12 12 13 14 15 16 16 17 17 17 16 16 16 16 16 14 13 12 12 11 10 10 10 9 7 5 4 4 3 2 1 1 1 1 2 2
16 16 16 15 15 14 13 11 11 11 11 12 12 12 12 13 14 15 16 17 17 18 18 17 16 16 16 16 15 14 13 12 12 10 10 10 10 9 7 6 5 4 4 3 3 3 3 3 3

GEFSSGP_500_meanwind_174.txt.gz
Wind_Speed
2 2 2 2 2 2 2 2 1 1 1 1 1 0 0 1 2 2 2 2 3 3 3 3 3 2 3 4 4 3 3 3 3 4 4 4 4 4 4 4 4 4 4 5 6 7 8 8 8
2 2 2 2 2 2 3 2 2 2 2 2 1 2 2 3 3 3 3 3 4 4 4 4 4 4 4 5 5 4 4 3 3 3 4 5 5 5 5 5 5 5 5 6 7 8 8 8 9
2 3 2 3 3 3 3 3 3 3 3 3 2 3 4 4 4 4 4 4 4 5 5 5 5 5 5 5 5 5 5 4 4 3 4 5 6 6 6 6 6 6 6 7 7 7 8 8 9
3 3 3 4 4 4 4 4 4 4 4 4 3 4 4 5 5 5 5 5 5 5 6 6 6 7 6 6 6 6 5 5 4 4 5 5 7 7 6 6 7 7 7 7 7 7 8 8 9
4 4 4 4 4 5 5 5 5 5 5 5 5 5 5 6 6 6 6 6 6 6 7 7 7 8 7 7 6 6 6 6 5 5 6 6 7 7 7 7 7 7 6 7 7 7 8 9 9
5 5 5 5 5 6 6 6 5 5 5 5 6 6 6 6 6 6 7 7 7 7 8 8 8 8 7 7 7 7 7 6 6 6 6 7 7 7 7 7 7 7 7 7 8 8 8 9 10
6 6 6 6 6 7 7 7 6 5 6 6 6 7 7 7 7 7 7 7 8 8 8 8 8 8 8 7 7 7 7 7 6 6 7 7 7 7 7 6 7 7 7 7 8 9 9 9 9
7 7 7 7 7 7 8 7 7 7 7 7 7 7 7 8 8 8 7 7 8 8 8 8 8 8 8 8 8 8 8 8 7 7 7 7 6 6 6 6 6 7 7 7 8 8 9 9 9
8 7 7 8 8 8 8 8 8 8 8 8 8 8 8 8 8 8 8 7 8 8 8 8 8 9 9 8 8 9 9 8 8 7 7 6 6 7 6 6 6 7 7 7 7 7 8 8 8
9 9 9 9 9 9 9 9 8 8 9 9 9 9 9 8 9 9 8 8 8 8 8 8 8 8 9 8 8 8 8 8 8 7 6 6 6 6 6 6 6 6 6 6 6 6 7 7 7
10 10 10 10 10 10 10 10 9 10 10 10 10 10 10 9 9 10 9 8 8 8 8 8 8 8 8 7 7 7 7 7 7 6 6 6 6 5 5 5 6 5 5 6 6 6 6 6 7
12 11 11 11 11 11 11 11 10 10 11 11 11 11 10 10 10 10 10 9 9 8 8 8 7 7 7 6 7 7 7 6 5 5 5 5 4 4 4 4 4 5 4 5 5 5 5 6 6
12 12 12 12 12 12 12 12 11 11 11 11 12 12 12 11 10 10 10 10 9 9 8 8 8 7 6 6 6 6 6 6 4 4 4 4 4 4 3 3 4 4 4 4 4 4 4 4 4
13 13 13 12 12 12 12 12 12 12 12 12 11 11 11 11 11 10 10 10 10 9 9 9 8 8 8 7 6 6 7 6 5 4 3 3 2 2 1 2 2 2 2 3 3 2 3 3 3
13 13 13 13 12 12 12 12 12 12 12 12 12 11 12 11 11 11 10 10 10 9 9 9 8 8 7 7 6 7 7 6 5 4 3 2 2 1 1 1 1 1 1 2 2 2 2 2 2
13 13 13 13 13 12 12 12 12 12 12 12 12 12 12 12 11 11 11 10 9 9 9 9 8 8 8 7 6 7 7 6 5 4 3 2 1 1 1 1 1 1 1 1 1 1 1 2 2
12 12 13 13 13 13 13 12 12 12 12 12 12 12 13 12 12 11 11 11 11 10 10 9 8 8 9 8 7 7 7 6 5 4 3 2 1 1 1 0 1 1 1 1 1 1 1 1 1
12 12 12 13 13 13 13 13 14 13 13 13 13 13 13 13 12 12 11 12 12 11 11 10 9 9 9 8 7 6 6 6 5 4 3 2 1 1 1 0 1 1 1 1 2 1 1 1 1
12 12 12 13 13 13 13 14 14 14 14 14 13 14 14 13 13 12 12 13 13 12 12 11 10 10 9 8 7 7 6 6 5 4 3 3 2 1 1 1 1 2 2 2 2 2 2 2 2
13 12 13 13 13 13 13 14 14 14 14 14 14 14 14 14 13 13 13 14 14 14 13 12 12 11 10 9 8 7 7 6 5 4 4 4 3 2 1 1 2 2 2 2 2 2 2 2 2
13 13 13 13 13 13 13 13 13 13 14 14 13 14 14 14 14 14 14 14 15 15 14 14 14 12 11 10 9 8 8 7 6 6 5 4 3 2 2 1 1 2 2 2 2 2 2 2 2
14 14 14 14 13 13 13 13 14 13 13 14 14 13 14 14 14 14 15 15 16 16 15 15 14 13 12 12 11 9 9 8 7 6 6 4 4 3 2 1 1 2 2 1 2 2 2 1 2
15 14 14 14 14 14 14 14 14 13 12 13 13 13 13 13 13 14 15 15 16 16 15 15 15 14 14 13 11 11 9 9 8 7 6 5 4 3 2 2 1 2 2 1 1 1 1 1 2
15 15 15 14 14 14 14 14 14 14 13 13 13 13 13 14 14 14 14 15 15 16 16 16 15 14 14 13 12 12 10 10 9 8 7 6 5 4 3 2 2 1 1 0 0 1 0 1 2
16 15 15 14 14 14 13 14 13 13 13 13 13 13 13 14 14 13 13 14 14 15 15 15 14 14 14 14 13 12 11 11 9 9 8 7 5 4 3 3 2 1 0 0 0 1 1 1 1
16 15 15 14 14 13 13 14 13 13 13 13 13 13 13 13 13 13 13 13 14 15 15 15 15 15 15 14 14 13 12 12 11 10 9 8 7 5 4 4 2 1 1 1 1 1 1 1 1
16 15 15 15 14 14 14 14 13 13 13 13 13 13 13 13 13 14 13 14 14 15 16 15 15 15 15 15 14 13 12 12 12 11 10 9 8 7 5 4 3 2 2 2 1 2 1 1 0
16 16 15 14 14 14 13 13 13 12 12 12 13 12 12 12 13 14 14 14 14 15 15 16 15 15 15 15 15 14 14 13 13 12 11 10 9 8 6 5 4 3 2 2 2 2 1 1 1
16 16 15 15 15 14 13 13 12 12 11 11 11 12 12 11 12 13 13 14 14 14 15 15 16 16 16 16 16 15 15 15 14 13 12 11 10 9 8 6 5 4 3 2 2 2 2 2 2
17 16 15 15 15 14 14 13 13 12 11 11 11 11 11 11 12 13 13 14 14 14 15 15 16 16 16 16 16 15 15 15 14 13 13 12 11 10 9 7 6 5 4 3 3 3 3 3 3

GEFSSGP_500_meanwind_180.txt.gz
Wind_Speed
2 2 2 2 3 3 3 3 3 3 3 4 4 4 4 5 5 6 6 6 6 6 7 7 7 7 7 6 6 6 5 5 4 4 4 5 5 6 5 5 5 6 6 6 6 6 7 7 8
1 1 2 2 3 3 3 4 4 3 3 4 4 5 5 5 6 7 7 7 7 8 8 8 8 8 8 7 7 7 7 6 5 5 5 5 6 6 6 6 6 7 7 7 7 7 7 8 9
2 2 2 3 3 4 4 5 4 4 5 5 5 5 6 6 7 7 8 8 8 8 9 9 9 9 9 9 9 9 8 7 6 6 5 5 5 6 7 7 7 7 7 7 7 7 7 8 8
3 4 4 4 5 5 6 6 5 6 6 7 7 7 7 7 8 8 9 9 9 9 10 9 10 9 10 10 9 10 9 8 8 7 6 6 6 6 7 8 7 8 8 7 7 7 8 8 9
5 5 5 5 6 6 7 7 7 7 7 8 8 8 8 8 9 9 9 10 9 9 10 10 10 11 11 11 10 9 9 9 9 8 7 7 7 8 8 9 8 8 8 8 8 8 8 8 9
6 6 6 6 7 7 8 8 8 8 8 9 9 9 9 9 9 10 10 10 10 10 10 10 11 11 11 11 11 10 9 9 8 8 8 8 8 8 8 8 8 7 7 8 8 8 8 8 8
7 7 7 7 8 8 9 9 9 9 9 10 10 9 9 9 10 10 10 11 10 11 11 11 11 11 10 10 10 10 10 9 8 8 8 8 8 8 8 7 7 7 7 7 8 7 8 8 8
8 8 9 9 9 9 10 10 10 11 11 11 11 11 10 10 11 11 11 11 11 11 11 11 11 10 10 10 10 10 10 9 9 9 8 8 8 8 8 7 7 7 7 7 7 7 7 8 7
9 10 10 10 11 10 11 10 11 11 12 12 12 11 11 11 11 12 11 11 12 11 11 10 10 10 10 10 10 9 9 9 9 9 8 8 7 7 7 7 6 6 7 7 6 7 7 7 7
11 11 11 11 12 11 12 11 11 12 13 12 12 12 12 12 12 12 12 11 11 11 10 10 10 10 10 10 9 9 8 8 8 9 8 7 7 6 6 6 6 6 6 6 6 6 6 6 6
12 12 11 12 12 12 12 12 13 13 13 13 12 12 12 12 13 13 12 12 11 10 10 10 10 9 9 9 9 9 8 8 8 8 7 6 6 6 6 6 6 5 6 5 5 5 5 5 5
13 12 12 12 12 13 13 13 13 14 14 14 13 13 13 12 13 13 12 11 11 11 10 10 10 9 9 8 8 9 8 8 8 8 7 6 6 6 6 5 5 5 5 5 4 4 4 4 5
12 13 13 13 13 14 14 14 14 14 14 14 14 13 13 12 12 12 12 11 11 11 11 10 10 8 8 8 8 8 8 8 8 7 7 6 5 6 5 4 4 4 4 4 4 3 3 4 4
12 12 12 13 13 14 14 14 14 14 14 14 14 14 13 12 12 12 11 11 11 11 11 10 9 8 8 8 7 7 7 8 8 7 6 6 5 5 4 2 2 3 3 3 3 2 3 4 4
12 13 13 13 13 13 14 14 14 14 14 14 14 14 13 12 12 12 12 12 11 11 10 10 10 8 8 8 7 7 6 7 6 6 5 5 4 3 2 1 2 2 2 2 3 3 2 3 3
13 14 14 13 14 14 15 15 14 14 14 14 14 13 13 13 13 12 12 12 11 11 10 10 9 8 8 8 7 7 7 6 5 5 4 3 2 2 1 1 1 1 2 2 3 2 2 3 3
13 13 14 15 14 14 15 15 14 14 14 14 14 13 13 13 13 12 12 12 11 11 10 10 9 8 7 7 7 7 7 6 5 4 3 3 2 1 1 1 1 1 1 2 2 2 2 2 3
13 14 14 15 15 15 15 15 15 15 15 14 14 14 14 14 13 12 12 12 12 12 11 10 9 8 7 6 6 7 6 5 5 4 4 3 2 1 1 0 0 1 1 1 2 2 2 2 2
13 13 14 15 15 15 15 15 15 15 14 14 14 15 15 15 14 13 13 13 12 12 11 10 10 8 7 7 6 6 6 5 5 4 3 2 2 2 1 1 1 1 1 1 2 2 2 2 2
13 13 14 15 15 15 15 15 15 15 15 15 15 15 15 14 14 14 13 13 13 12 12 11 10 10 9 8 8 7 6 6 5 5 3 2 2 2 2 1 0 0 1 1 1 2 2 2 2
14 14 15 15 16 15 15 15 15 15 15 15 15 16 16 15 15 14 14 13 13 13 12 12 11 11 10 9 8 7 6 6 5 4 4 3 3 2 2 1 1 1 1 1 2 2 2 2 2
14 14 15 15 16 15 15 15 15 15 15 15 15 16 16 16 16 15 14 14 14 14 13 13 12 11 10 10 9 8 7 6 5 5 4 4 3 3 2 2 1 1 0 0 1 1 2 2 2
15 15 15 16 16 16 15 16 15 16 15 16 16 16 16 16 17 15 15 15 14 14 14 13 12 11 11 10 10 10 9 7 6 5 5 4 3 3 2 2 1 1 1 1 1 1 1 1 2
15 16 16 16 16 16 15 16 16 16 16 16 16 16 16 16 16 16 15 15 15 14 14 13 12 12 12 11 10 10 9 8 7 6 6 5 4 3 3 3 2 2 1 1 1 1 1 1 2
16 16 16 15 15 16 15 17 16 17 16 17 17 16 16 16 16 16 15 15 15 14 14 13 13 12 12 11 10 10 10 9 8 7 6 6 5 4 4 3 2 2 1 1 1 1 2 2 2
16 16 16 15 15 15 15 16 17 17 17 17 17 16 16 16 16 15 15 14 14 13 13 13 13 12 12 11 10 10 11 10 9 8 7 6 6 5 4 3 2 2 1 1 1 2 2 2 2
17 17 16 17 16 15 14 16 18 18 17 17 16 16 16 15 15 15 14 14 14 13 13 13 12 12 11 11 11 11 11 11 10 10 9 8 7 6 5 4 3 3 2 2 1 1 1 2 2
18 17 17 17 17 16 15 17 19 18 17 16 16 16 15 15 14 14 13 13 13 12 12 11 11 11 11 12 12 11 10 10 11 10 10 9 8 7 7 6 5 4 3 2 2 2 2 2 2
18 18 18 19 18 18 17 17 17 17 16 16 15 15 15 14 14 14 13 13 12 12 12 12 12 11 11 12 12 11 10 10 10 10 10 10 9 8 8 7 6 5 4 3 4 4 3 3 4
19 19 19 19 18 18 19 19 17 17 17 16 16 15 15 14 14 13 13 12 11 12 12 12 11 11 12 12 12 12 10 10 9 10 11 11 9 9 8 8 7 6 5 5 4 4 4 5 5

GEFSSGP_500_meanwind_186.txt.gz
Wind_Speed
1 0 0 1 1 1 2 2 2 3 3 2 2 3 3 3 4 4 5 5 4 4 5 5 5 6 5 5 5 6 6 7 7 7 7 7 6 7 7 7 7 7 7 7 7 8 8 8 8
0 1 1 1 1 1 1 2 2 2 2 2 3 4 4 4 4 5 5 6 5 5 6 6 6 6 6 7 7 8 8 8 8 8 7 7 7 7 7 7 7 7 8 8 8 8 8 8 9
1 2 2 3 3 2 2 2 2 2 2 3 3 4 4 4 5 5 6 6 6 6 6 6 7 7 7 7 8 8 8 8 8 7 7 7 7 7 8 8 8 8 8 8 8 9 9 9 9
2 3 3 4 4 4 3 3 3 3 3 4 4 5 5 5 6 6 7 7 7 6 7 7 7 7 8 8 8 8 8 8 8 8 8 8 8 8 8 8 8 9 9 9 9 9 9 10 10
4 4 5 5 5 5 4 4 4 4 4 5 5 6 6 6 6 6 7 8 8 8 7 8 8 8 8 8 8 9 9 9 9 9 8 8 9 9 9 8 9 8 8 8 9 9 10 10 10
5 6 6 6 7 5 5 5 5 5 5 6 6 7 8 7 7 7 8 8 9 9 9 8 8 8 8 9 8 9 9 9 9 9 9 9 9 9 9 9 8 8 8 8 9 9 9 9 10
7 7 7 8 7 7 6 6 6 6 7 7 7 8 8 9 8 8 8 9 9 9 9 9 9 8 9 8 8 8 8 9 9 9 9 8 8 8 8 8 8 8 8 8 8 8 8 9 9
8 8 8 8 8 8 7 7 7 8 8 8 9 9 9 10 10 9 9 9 9 9 9 9 9 9 8 8 8 8 8 8 9 8 8 7 8 8 8 8 8 8 8 8 8 8 8 8 7
9 9 9 9 9 9 9 8 8 8 8 9 9 10 10 11 10 9 9 9 9 9 9 9 9 9 8 7 7 8 8 8 8 8 7 7 7 8 8 8 8 8 7 7 7 7 7 6 6
10 10 9 9 9 9 9 9 9 9 9 9 10 10 10 10 10 9 9 9 9 9 9 9 9 8 8 7 7 7 7 7 7 7 8 8 8 8 8 8 7 7 7 7 7 7 6 5 5
10 10 10 10 10 9 9 10 10 10 9 10 10 10 10 9 9 9 9 9 9 9 9 9 8 8 7 7 6 7 7 7 7 7 8 8 8 7 8 7 6 6 6 6 6 6 5 5 5
11 11 11 11 10 9 9 10 10 10 10 10 10 10 10 9 9 9 9 9 9 8 8 8 8 7 7 7 6 6 7 7 7 6 6 6 7 7 8 7 6 6 5 5 5 4 4 4 4
12 12 11 11 10 10 10 10 10 10 10 10 10 10 10 9 9 9 9 8 8 8 7 7 7 7 7 7 7 7 7 7 6 6 6 6 7 7 7 7 7 6 5 5 4 4 3 3 3
11 12 11 11 11 10 10 10 10 10 10 10 10 10 10 9 8 8 9 9 7 7 7 7 7 7 7 7 7 7 7 7 6 6 6 6 6 6 7 6 6 5 4 4 4 3 3 3 3
12 12 11 11 10 10 10 10 10 10 10 10 11 10 10 9 9 8 8 8 7 7 7 7 7 7 7 7 6 6 6 6 6 6 6 5 5 5 4 5 5 4 3 3 3 3 3 3 3
12 12 12 12 12 11 10 11 10 10 10 10 10 10 10 11 10 9 8 8 8 8 7 7 7 7 6 6 6 6 6 6 5 5 5 5 4 4 3 4 4 3 3 2 2 2 2 2 2
12 11 11 12 11 11 11 11 11 11 11 11 11 11 10 11 10 9 9 9 9 8 8 7 7 7 7 6 6 6 6 5 4 4 5 4 4 4 4 4 4 4 3 2 1 1 1 1 1
12 11 11 11 11 11 11 11 11 11 10 10 11 11 10 10 11 10 9 9 9 8 8 7 7 7 7 6 6 6 6 5 4 5 4 4 4 4 3 3 4 4 3 2 2 1 1 0 0
12 12 12 11 12 12 11 11 11 10 10 10 11 10 10 10 11 11 10 9 9 9 8 8 7 7 7 7 7 7 6 5 5 5 5 4 4 4 3 3 4 3 3 2 2 1 1 1 1
12 12 11 11 11 12 12 11 11 11 11 11 10 10 10 10 11 10 10 9 9 9 9 9 8 8 8 7 6 6 6 5 5 5 5 4 3 4 4 4 3 3 3 2 2 2 2 1 1
12 12 12 12 12 12 12 11 11 11 11 11 11 11 10 10 10 11 10 10 10 9 9 9 8 8 8 7 6 6 6 5 4 4 5 5 4 4 4 4 3 3 3 2 2 2 2 1 1
13 13 14 14 13 12 12 11 10 11 11 11 11 11 10 10 11 11 11 10 11 10 9 9 9 8 8 8 8 7 6 5 5 5 5 5 5 5 4 4 3 3 2 2 2 2 2 1 1
14 14 14 14 14 13 12 12 9 10 10 10 11 11 11 11 11 11 11 11 11 11 10 9 9 9 9 9 8 7 6 7 6 6 5 5 5 5 5 4 3 3 2 2 2 2 2 1 1
15 14 14 14 14 13 12 12 9 10 10 11 11 12 11 11 11 11 11 11 11 11 11 11 10 9 9 9 8 8 8 8 8 7 7 6 6 5 5 5 4 3 3 2 2 2 2 2 1
14 14 15 15 15 13 13 13 10 11 11 11 11 11 11 11 11 11 11 11 11 11 10 11 11 9 9 9 9 9 9 9 9 9 8 7 6 6 5 5 4 4 3 3 2 2 2 2 1
15 15 15 16 15 13 14 14 12 12 11 11 11 11 11 10 10 10 10 10 11 11 10 10 11 10 9 9 9 9 10 10 10 10 9 8 7 7 6 5 5 4 4 3 3 3 2 1 2
16 16 15 16 16 15 15 14 13 12 11 11 11 11 10 10 10 10 11 11 11 11 10 9 11 11 10 9 9 10 10 10 11 10 10 9 8 7 7 6 5 5 4 4 3 3 2 2 2
17 16 16 16 17 17 15 14 13 12 11 10 11 12 12 11 11 10 11 11 11 11 11 10 10 10 10 10 9 10 11 11 11 11 10 9 8 7 7 7 6 6 5 4 3 3 2 2 2
17 18 18 18 18 18 17 15 14 13 12 12 12 12 12 11 10 9 9 10 10 10 10 9 9 10 10 11 10 11 11 11 11 10 10 10 9 8 8 8 7 6 6 5 4 4 3 3 3
19 19 18 18 18 18 18 16 14 14 14 13 13 12 11 10 10 9 9 9 8 8 9 9 10 10 10 11 11 12 12 12 12 11 11 11 10 10 9 8 8 8 7 6 5 5 4 4 4

GEFSSGP_500_meanwind_192.txt.gz
Wind_Speed
2 3 3 3 3 2 2 1 2 2 2 2 2 2 3 3 4 4 4 4 4 4 4 5 5 5 6 6 5 5 5 5 5 5 5 5 5 5 5 5 5 5 6 6 6 7 7 8 8
2 3 4 4 3 3 3 3 2 2 3 3 3 3 4 4 4 5 5 5 5 5 5 6 6 6 6 6 6 6 6 7 6 6 6 6 6 6 6 6 6 6 7 7 7 8 8 9 9
3 3 4 4 3 3 3 4 4 4 4 4 4 4 4 4 5 6 6 6 5 6 6 6 7 6 6 7 7 7 7 7 7 7 6 7 7 7 7 6 7 7 8 8 8 9 9 9 9
4 4 5 4 3 3 3 4 4 5 5 5 5 5 5 5 6 6 6 6 6 7 7 7 7 7 7 7 7 7 7 7 7 7 7 7 8 8 8 7 7 7 8 9 9 9 9 10 10
5 5 5 5 4 4 4 4 5 5 5 5 6 6 6 6 7 7 7 7 7 7 7 8 8 7 7 7 7 7 7 7 8 8 8 8 9 9 8 8 8 8 8 8 9 9 9 10 10
6 6 6 5 6 6 5 6 6 6 6 6 7 7 8 8 8 8 9 8 8 8 8 8 8 8 8 8 8 8 8 8 8 8 9 9 9 10 10 9 9 8 8 8 8 9 9 9 10
7 7 7 7 7 7 7 7 8 8 8 8 8 8 9 9 9 9 9 9 9 9 9 8 9 8 8 8 8 8 8 8 8 8 9 9 10 10 10 10 9 8 8 8 8 8 8 8 8
8 9 8 8 8 7 8 9 8 8 8 9 9 9 9 10 10 9 9 9 9 9 9 9 9 9 8 8 8 8 8 8 9 9 9 9 10 10 10 10 9 9 8 8 8 8 7 7 7
9 9 8 8 8 8 9 9 9 9 8 8 9 9 9 10 10 9 9 9 8 9 9 9 9 8 8 8 8 8 8 9 9 9 10 9 9 9 8 9 8 8 8 7 8 8 7 7 7
10 10 9 9 9 9 9 9 9 9 8 9 9 9 9 10 10 10 10 9 8 8 9 8 8 8 8 7 8 8 8 9 9 9 10 9 9 8 8 8 8 8 8 8 7 7 7 6 6
11 11 10 10 10 10 9 10 9 9 9 9 9 9 9 10 10 10 9 9 7 8 8 8 7 7 7 8 8 7 7 8 8 8 9 8 8 8 8 8 8 8 8 8 7 7 6 6 6
11 11 11 11 11 10 10 10 10 10 9 9 9 9 9 9 9 9 8 8 7 7 8 7 7 7 7 8 7 7 7 7 7 7 7 7 7 7 8 8 8 8 8 7 7 7 6 6 6
12 11 11 11 11 11 10 9 10 10 10 9 9 8 8 9 9 9 8 7 7 7 7 7 7 7 8 7 7 7 7 7 7 7 6 6 6 6 7 7 7 8 7 7 7 6 6 6 5
12 12 12 11 11 11 10 10 10 10 10 9 9 9 9 10 9 9 8 7 8 8 7 7 7 7 7 7 7 8 8 7 7 7 7 6 6 6 6 6 6 6 6 5 6 5 5 5 4
12 12 11 11 11 10 10 10 10 10 10 10 10 10 10 10 9 9 9 8 8 8 8 8 7 7 7 7 7 7 8 7 7 6 7 7 6 6 6 5 5 5 4 4 4 5 4 4 4
12 12 11 11 11 11 10 11 11 11 10 10 11 11 11 10 10 10 10 9 9 9 8 8 8 8 7 7 6 7 7 6 6 7 7 6 6 5 5 5 4 4 3 3 4 4 4 4 3
13 12 12 12 12 12 12 11 11 11 11 11 11 11 11 11 11 11 10 10 10 9 9 9 9 8 7 6 6 7 5 5 6 6 5 5 5 4 4 4 4 3 3 3 4 4 4 3 3
13 13 12 12 12 12 13 12 12 12 12 12 12 12 11 11 11 11 11 11 10 10 9 9 10 8 7 7 7 6 6 5 5 5 4 4 4 4 4 4 3 3 3 4 4 3 3 2 2
13 12 12 12 13 13 12 13 13 13 13 13 12 12 12 12 12 11 11 11 10 9 9 9 9 9 7 7 6 6 6 5 5 5 5 4 4 4 4 4 3 3 3 4 3 3 3 2 2
13 13 12 12 13 13 13 13 13 12 13 12 12 11 12 12 12 11 11 11 10 9 9 9 8 9 8 7 7 6 6 6 5 5 5 4 4 4 4 3 4 4 4 4 3 3 2 2 1
14 14 13 13 13 14 13 12 13 12 12 12 11 11 11 12 12 11 11 11 11 10 9 9 9 8 8 7 7 7 6 6 5 5 5 5 5 5 4 4 4 4 4 3 3 3 2 2 2
15 14 14 14 14 13 14 12 12 13 12 11 12 11 11 11 12 12 12 12 12 11 11 10 10 9 8 7 7 7 7 6 6 5 5 5 5 5 4 4 4 4 3 3 3 3 2 2 2
15 15 16 16 15 14 13 13 11 12 12 11 12 12 12 12 12 12 12 12 12 12 11 11 10 10 9 8 8 7 6 6 5 5 5 4 4 4 5 4 4 4 4 4 3 3 2 2 2
17 17 17 17 17 15 13 13 10 11 11 12 12 12 12 12 12 12 12 11 11 11 11 11 10 10 10 10 9 8 8 7 6 6 6 6 5 4 4 4 5 4 4 4 3 3 3 2 2
19 18 18 17 17 15 14 14 11 11 11 12 12 12 12 12 12 11 11 11 11 11 11 10 10 9 10 10 9 8 8 8 8 7 7 7 6 6 5 5 5 5 4 4 4 3 3 3 2
19 19 18 18 17 16 15 14 12 11 12 13 12 12 13 12 12 11 12 11 11 11 10 10 9 8 9 10 10 8 8 8 8 8 7 7 7 7 6 6 6 5 5 5 4 4 3 3 3
20 20 19 19 18 17 16 14 12 12 13 13 13 13 12 12 12 12 12 11 10 10 10 9 9 9 9 9 9 9 9 9 8 8 8 8 8 7 7 6 6 5 5 5 5 5 4 4 4
20 20 20 20 19 18 17 14 12 12 13 13 13 13 13 12 12 11 11 10 9 9 9 9 9 9 9 9 9 10 10 9 9 9 9 8 8 7 7 7 6 6 6 6 5 5 4 4 4
21 21 20 20 20 18 17 14 13 13 13 13 13 13 13 12 11 11 10 10 9 8 8 8 9 8 9 10 10 10 10 10 10 10 10 10 9 8 8 8 7 7 6 6 6 6 6 5 5
22 21 20 20 19 19 18 16 14 13 14 13 13 13 12 12 11 10 10 10 9 8 7 8 8 9 9 10 11 11 11 11 11 11 11 11 10 10 9 8 8 7 7 6 6 6 6 6 5

GEFSSGP_500_meanwind_198.txt.gz
Wind_Speed
3 3 3 3 3 3 2 1 1 0 0 0 1 1 1 1 1 2 2 2 1 2 2 2 3 3 4 5 5 5 5 5 5 5 5 5 5 4 4 5 5 5 5 6 6 6 6 6 7
3 3 3 3 3 2 2 1 1 1 1 2 2 2 2 1 1 2 3 3 3 3 3 3 3 4 5 5 5 6 6 6 6 7 7 6 6 6 6 6 6 7 7 7 7 7 8 8 8
2 2 2 2 2 2 2 2 2 2 3 3 3 3 3 2 3 3 4 4 4 4 4 4 5 5 5 5 6 6 7 8 8 8 8 8 8 7 7 8 8 8 8 8 8 8 8 8 8
2 2 2 3 3 3 3 3 3 4 4 4 4 4 4 4 5 5 5 5 5 5 5 5 6 6 6 5 6 7 7 8 9 8 9 9 9 9 9 9 9 9 9 9 8 8 8 8 8
2 3 3 3 4 4 4 4 5 5 5 5 6 6 6 5 6 6 6 6 6 6 6 7 7 7 6 6 7 7 8 8 9 9 9 9 9 9 9 9 9 10 10 9 9 8 8 8 8
3 3 3 4 5 5 6 6 6 6 6 6 7 6 6 7 7 7 7 7 7 7 7 7 8 7 7 7 8 8 8 8 9 9 9 9 10 10 10 10 11 11 11 10 9 9 8 8 8
4 4 4 5 5 6 6 6 6 7 7 8 8 7 7 8 8 8 8 8 7 7 8 8 8 8 8 8 9 8 8 9 9 9 9 10 10 11 11 11 11 11 11 10 9 8 8 8 7
5 5 5 5 6 6 6 6 7 7 8 8 8 8 8 8 8 8 8 8 8 8 8 9 8 8 9 9 9 9 9 9 9 10 10 10 11 11 11 12 12 11 11 10 9 8 8 7 7
6 6 6 6 6 6 6 7 7 7 8 8 8 8 8 8 8 8 8 8 8 8 9 9 8 9 9 9 9 9 9 9 10 10 10 10 10 10 10 11 11 11 10 9 9 8 8 7 7
7 7 7 6 6 7 7 7 7 8 8 8 8 8 7 7 8 8 8 8 8 8 8 8 8 9 9 8 9 9 9 9 10 10 10 10 11 11 10 10 10 9 8 9 9 8 8 7 7
7 7 7 7 7 7 7 7 7 8 8 8 8 8 7 7 8 8 8 8 8 7 8 8 8 8 8 8 8 8 8 9 9 9 9 10 10 10 9 8 8 8 8 8 8 8 8 7 6
8 8 8 7 8 8 8 7 8 8 8 8 7 8 8 8 8 8 8 8 8 8 7 8 8 8 8 8 8 8 8 9 9 9 9 9 9 9 8 8 8 9 9 9 8 8 7 7 7
9 8 8 8 8 8 8 8 8 8 8 9 8 8 8 8 9 9 8 8 8 8 8 8 8 8 8 8 8 8 8 8 8 8 8 8 8 7 7 7 7 8 9 9 8 8 8 7 7
10 9 9 9 9 9 8 8 8 8 8 8 8 8 8 8 9 9 9 8 8 9 8 8 8 8 8 8 8 8 8 7 7 7 7 7 7 7 6 6 6 6 7 8 8 8 8 7 7
10 10 10 9 9 9 9 9 8 9 9 9 9 8 8 8 9 9 9 9 8 9 9 8 8 8 8 8 8 8 7 7 7 7 7 8 8 7 7 6 6 7 7 7 8 8 7 7 6
11 11 10 10 10 9 10 9 9 9 9 9 9 9 9 9 9 10 9 9 9 9 10 9 9 9 8 8 8 7 7 7 7 7 7 7 7 7 6 6 6 6 6 6 6 7 6 6 6
12 12 11 11 10 10 10 10 10 11 10 10 10 10 10 10 10 10 10 10 10 10 10 10 10 9 9 8 8 8 7 7 7 7 7 6 6 6 6 6 6 6 6 6 7 7 6 6 6
12 12 12 12 11 11 11 11 11 11 11 11 11 10 10 10 10 11 11 11 11 11 10 10 10 10 9 9 8 8 7 7 7 7 7 7 6 6 6 6 6 6 6 6 6 6 6 6 5
13 13 13 12 12 12 12 11 11 11 11 11 11 11 11 11 11 11 11 11 11 11 11 11 10 10 10 9 8 8 8 7 7 7 7 6 6 6 6 6 6 6 6 5 5 5 5 5 5
14 13 13 12 13 13 13 12 12 12 12 12 12 12 12 11 11 11 12 12 12 12 12 11 10 10 10 10 9 8 8 7 7 6 5 6 6 6 6 6 6 6 6 5 5 5 5 5 5
15 14 14 14 13 13 14 13 12 13 12 12 12 12 12 12 12 12 13 12 12 12 12 12 11 10 10 10 10 9 8 8 6 5 5 5 5 6 6 6 6 6 6 5 5 5 5 5 4
16 15 15 15 14 14 14 14 12 12 11 11 12 12 12 12 12 12 13 12 12 12 12 12 11 11 11 11 10 10 10 9 7 7 6 6 5 6 6 6 6 6 6 6 5 5 5 4 4
16 16 16 16 15 15 14 14 13 12 12 11 12 12 12 12 13 13 13 13 13 13 12 12 11 11 11 10 10 10 9 9 8 7 7 6 6 6 6 6 7 6 6 6 5 5 5 4 3
16 16 16 16 16 16 14 14 14 13 12 12 12 13 13 13 13 12 13 13 13 12 12 12 11 11 11 11 10 9 9 9 8 8 7 7 7 7 7 6 6 6 6 6 5 5 5 4 4
17 16 16 16 17 17 14 15 14 14 13 13 13 13 13 12 12 12 12 12 12 12 11 11 11 10 11 10 10 9 9 9 9 8 8 7 7 7 7 7 6 6 6 6 6 6 5 5 4
18 17 18 17 18 17 16 16 14 14 14 13 13 13 12 12 12 12 12 11 11 11 11 10 10 9 10 10 10 10 9 8 8 8 8 8 8 7 8 7 7 6 6 6 6 6 6 5 5
19 19 18 18 18 17 17 16 15 15 14 14 14 13 13 13 13 12 11 11 11 10 10 10 9 9 9 10 10 10 10 9 9 8 8 8 8 8 8 8 7 7 7 7 6 6 6 6 5
20 19 19 19 18 18 18 17 15 15 14 15 14 13 13 13 13 12 11 11 10 10 10 9 9 9 9 9 10 10 10 9 9 9 9 8 8 8 8 8 7 7 7 7 6 6 6 5 5
21 21 21 20 19 18 19 18 15 15 14 14 13 12 12 12 12 12 11 11 10 10 10 10 9 9 9 10 10 10 9 10 10 10 10 9 9 9 8 8 8 7 7 7 7 6 6 6 6
22 22 21 21 21 20 20 18 15 15 15 14 14 13 12 12 12 12 12 11 11 11 10 10 10 10 10 10 10 10 10 10 11 10 10 10 10 10 9 8 9 8 8 7 7 7 6 6 6

GEFSSGP_500_meanwind_204.txt.gz
Wind_Speed
2 2 2 2 2 2 2 3 3 3 3 4 4 5 5 5 5 5 5 5 5 5 5 5 6 6 6 6 6 6 6 6 6 7 6 6 6 6 6 6 6 6 6 7 8 7 7 7 7
2 2 2 2 2 3 3 3 3 4 4 4 5 6 5 5 6 6 7 6 6 6 6 7 7 7 7 7 7 7 7 7 7 8 8 8 8 8 8 8 7 7 7 8 9 9 8 8 8
2 2 2 2 2 3 3 4 4 4 5 5 6 7 7 7 6 7 8 8 8 7 8 8 8 8 8 8 7 7 7 8 9 9 9 9 9 9 9 9 9 8 8 9 9 9 9 8 8
2 2 2 2 3 3 4 4 5 6 6 6 7 8 8 8 8 8 8 9 9 9 8 8 9 9 9 9 8 8 8 8 9 9 10 10 9 9 9 10 9 9 10 10 10 10 10 9 8
3 3 4 4 4 5 5 6 6 7 7 7 8 9 9 8 9 9 9 9 9 10 10 9 9 9 9 9 9 9 9 9 10 10 10 10 10 10 10 10 10 11 11 10 10 10 10 9 8
4 4 4 4 5 5 6 7 8 8 8 8 9 9 9 9 9 9 10 9 10 11 10 9 10 10 10 10 10 10 10 10 10 11 11 11 11 11 11 11 11 11 11 10 11 11 10 10 8
5 5 5 5 6 6 7 8 8 8 9 9 9 9 10 10 10 10 10 10 10 10 10 9 10 10 10 10 10 10 11 11 11 11 11 11 11 11 12 12 12 12 11 11 11 11 11 10 9
6 6 5 6 7 7 8 8 8 9 9 9 9 10 10 9 10 10 10 10 10 10 10 10 10 10 10 10 10 11 11 11 11 11 11 11 11 12 11 12 11 11 11 11 11 10 10 10 10
6 6 6 7 8 8 8 8 8 9 9 9 9 10 10 10 10 10 10 10 10 10 10 9 9 10 10 10 10 10 11 11 11 11 11 11 11 11 11 11 10 10 10 10 10 10 9 9 10
7 7 8 8 8 8 8 9 9 9 9 9 9 10 11 10 10 10 10 10 10 10 10 9 9 9 10 10 10 10 10 10 10 10 10 10 11 11 11 10 9 10 9 9 9 9 9 9 9
8 8 9 9 9 9 10 10 10 10 10 10 10 10 11 11 11 11 11 10 9 10 10 10 9 10 10 10 10 10 10 10 10 10 10 10 10 10 10 9 10 10 9 9 9 9 9 9 8
9 9 9 10 10 11 11 11 11 11 11 11 11 11 12 12 11 11 11 11 10 10 10 10 10 10 10 10 11 10 9 9 9 9 9 9 10 10 9 9 9 9 9 9 9 9 9 9 8
10 10 10 11 11 11 11 11 11 11 12 11 11 12 12 12 12 12 12 12 11 11 11 10 10 11 11 11 10 10 9 10 9 9 9 9 9 9 8 8 9 9 9 8 8 8 8 8 8
11 11 11 12 11 11 11 11 11 11 12 12 12 12 12 12 12 12 12 12 12 11 11 10 10 11 11 11 10 9 9 9 9 9 9 9 9 9 8 8 8 8 9 8 8 8 8 7 7
12 12 12 12 12 11 11 11 11 12 12 12 12 12 12 12 12 12 12 12 11 11 10 10 11 11 11 11 10 10 9 9 9 9 9 8 8 8 8 8 7 7 8 8 7 7 7 6 6
13 13 13 12 12 12 13 12 12 12 12 12 13 12 12 12 12 12 12 12 12 11 10 10 11 11 10 10 9 9 9 10 9 9 8 8 8 8 7 7 7 6 6 7 7 6 6 5 5
12 13 13 14 13 14 14 13 13 13 13 13 13 13 13 13 12 12 12 12 12 11 10 10 10 10 10 10 9 9 9 9 9 9 8 8 8 7 7 7 6 5 5 6 6 5 5 4 4
13 13 14 15 15 15 14 13 13 14 13 13 13 13 13 13 13 12 12 12 12 11 11 10 11 10 10 10 10 9 9 9 9 9 8 7 7 7 7 6 6 5 5 5 5 5 4 4 4
14 14 15 16 15 16 16 15 13 13 14 14 14 15 14 13 13 13 13 13 12 12 12 11 11 11 11 10 9 9 9 9 9 9 8 8 7 6 6 6 6 6 5 5 5 5 4 4 4
15 16 16 16 16 16 17 16 14 14 15 14 14 14 14 14 13 13 13 13 13 12 12 13 12 12 11 10 9 9 9 10 9 8 8 8 7 7 6 7 6 6 6 5 5 5 4 4 4
16 17 17 17 17 17 17 17 16 15 15 15 14 14 14 14 14 14 14 13 12 12 12 13 13 11 11 10 10 10 10 9 9 8 7 6 6 6 6 6 6 5 5 6 5 5 4 4 3
18 17 17 18 17 16 17 18 17 16 16 16 16 15 14 14 14 14 14 13 12 12 12 12 11 10 10 10 10 10 9 9 8 8 8 6 5 6 6 5 6 6 6 6 6 5 4 4 3
18 17 18 17 17 17 17 19 18 17 16 17 16 16 15 15 15 15 14 13 12 12 12 12 11 11 10 10 10 10 9 9 8 8 7 7 6 6 6 6 6 6 6 6 6 6 5 4 4
19 18 17 17 17 18 17 19 19 17 17 17 17 16 15 15 15 15 14 13 12 12 12 12 11 11 11 10 9 9 9 8 8 8 7 7 7 6 6 6 6 6 6 7 7 6 6 6 5
19 18 17 17 17 18 18 20 20 17 18 17 17 16 15 15 15 14 14 14 13 12 12 11 11 10 10 9 8 8 8 7 7 7 7 7 7 6 6 6 6 6 6 7 7 7 6 6 6
19 19 18 17 18 20 20 20 19 18 18 17 17 16 15 15 14 14 14 13 13 12 12 11 11 10 10 9 8 8 7 6 6 5 6 6 6 7 6 6 6 5 6 6 6 6 6 6 6
20 20 19 19 19 20 21 21 20 18 17 17 17 17 16 15 15 14 14 13 12 12 12 11 11 10 10 9 9 8 8 7 7 6 6 6 6 6 6 6 5 5 6 6 6 6 6 6 6
21 20 20 20 20 20 20 21 20 17 18 18 17 17 16 16 15 15 13 12 12 12 12 11 11 11 10 10 10 10 9 8 8 7 7 7 6 7 7 7 7 6 6 6 6 6 6 6 6
21 21 21 21 21 20 20 21 20 19 19 20 18 17 16 16 15 15 14 13 12 12 12 12 11 11 10 10 10 10 10 9 8 8 7 7 7 8 8 7 7 7 7 7 7 7 7 6 6
22 22 23 23 22 22 21 22 20 19 20 21 19 18 17 16 15 15 14 13 12 12 12 11 11 11 11 10 10 10 10 9 9 9 8 8 7 8 8 8 8 8 8 8 7 7 7 7 7